TimeMST,TemperatureF,Dew PointF,Humidity,Sea Level PressureIn,VisibilityMPH,Wind Direction,Wind SpeedMPH,Gust SpeedMPH,PrecipitationIn,Events,Conditions,WindDirDegrees,DateUTC
12:56 AM,23.0,19.0,85,30.46,10.0,Calm,Calm,-,N/A,,Clear,0,2013-12-24 07:56:00
1:56 AM,23.0,19.0,85,30.45,10.0,South,4.6,-,N/A,,Clear,180,2013-12-24 08:56:00
2:56 AM,21.0,18.0,88,30.45,10.0,East,3.5,-,N/A,,Clear,90,2013-12-24 09:56:00
3:56 AM,19.0,16.0,88,30.45,10.0,SE,3.5,-,N/A,,Clear,130,2013-12-24 10:56:00
4:56 AM,19.0,16.0,88,30.43,10.0,SE,3.5,-,N/A,,Clear,140,2013-12-24 11:56:00
5:56 AM,19.0,16.0,88,30.44,10.0,SE,4.6,-,N/A,,Clear,130,2013-12-24 12:56:00
6:56 AM,19.0,15.1,85,30.48,10.0,ESE,4.6,-,N/A,,Clear,120,2013-12-24 13:56:00
7:56 AM,21.9,17.1,82,30.48,10.0,East,3.5,-,N/A,,Clear,90,2013-12-24 14:56:00
8:56 AM,26.1,19.0,75,30.47,10.0,East,4.6,-,N/A,,Clear,100,2013-12-24 15:56:00
9:56 AM,30.9,19.9,64,30.46,10.0,ESE,6.9,-,N/A,,Clear,120,2013-12-24 16:56:00
10:56 AM,35.1,21.9,59,30.43,10.0,SE,5.8,-,N/A,,Clear,130,2013-12-24 17:56:00
11:56 AM,41.0,21.9,47,30.39,10.0,Variable,3.5,-,N/A,,Clear,0,2013-12-24 18:56:00
12:56 PM,45.0,21.9,40,30.33,10.0,East,3.5,-,N/A,,Clear,100,2013-12-24 19:56:00
1:56 PM,48.0,21.9,36,30.29,10.0,Calm,Calm,-,N/A,,Clear,0,2013-12-24 20:56:00
2:56 PM,50.0,23.0,35,30.26,10.0,Calm,Calm,-,N/A,,Clear,0,2013-12-24 21:56:00
3:56 PM,51.1,21.9,32,30.27,10.0,Variable,5.8,-,N/A,,Clear,0,2013-12-24 22:56:00
4:56 PM,48.0,23.0,37,30.30,10.0,NNW,6.9,-,N/A,,Clear,340,2013-12-24 23:56:00
5:56 PM,39.0,24.1,55,30.36,10.0,WNW,8.1,-,N/A,,Clear,290,2013-12-25 00:56:00
6:56 PM,35.1,26.1,70,30.39,10.0,West,12.7,-,N/A,,Clear,280,2013-12-25 01:56:00
7:56 PM,32.0,25.0,75,30.42,10.0,SSW,3.5,-,N/A,,Clear,200,2013-12-25 02:56:00
8:56 PM,28.0,24.1,85,30.43,10.0,Calm,Calm,-,N/A,,Clear,0,2013-12-25 03:56:00
9:56 PM,25.0,21.9,88,30.44,10.0,Calm,Calm,-,N/A,,Clear,0,2013-12-25 04:56:00
10:56 PM,24.1,21.0,88,30.43,10.0,WSW,4.6,-,N/A,,Clear,240,2013-12-25 05:56:00
11:56 PM,21.9,19.0,89,30.44,10.0,Calm,Calm,-,N/A,,Clear,0,2013-12-25 06:56:00